La Paz, Bolivia

7:57 PM -04 en Junio 22, 2017 (GMT -0400)
El Alto International

Tiempo Historia de SLLP - Junio, 2017

Change the Weather History Date:

Lunes, Junio 19, 2017

  Actual Average Record
Temperature  
Temperatura media 44 ° F -  
Temperatura máxima 60 ° F 53 ° F 60 ° F (2012)
Temperatura mínima 27 ° F 24 ° F 19 ° F (2016)
Degree Days  
Grados día de calefacción 22    
Moisture  
Punto de rocío 28 ° F    
Average Humidity 64    
Maximum Humidity 93    
Minimum Humidity 10    
Precipitación  
Precipitación 0.00 pul - - ()
Presión al nivel del mar  
Presión al nivel del mar 30.61 pul    
Viento  
Velocidad del viento 7 mph ()    
Velocidad máxima del viento 13 mph    
Max Gust Speed -    
Visibilidad 5.4 Millas    
Eventos Niebla    
Averages and records for this station are not official NWS values.
T = Trace of Precipitation, MM = Missing Value Source: Averaged Metar Reports

Daily Weather History Graph

Daily Weather History Graph

Search for Another Location

Airport or City:

Trip Planner

Search our weather history database for the weather conditions in past years. The results will help you decide how hot, cold, wet, or windy it might be!

Date:

Astronomía

Jun. 19, 2017 Salida Puesta
Hora real 6:59 AM -04 6:08 PM -04
Crepúsculo civil 6:36 AM -04 6:31 PM -04
Crepúsculo náutico 6:09 AM -04 6:58 PM -04
Crepúsculo astronómico 5:42 AM -04 7:25 PM -04
Luna 2:10 AM -04 (6/19) 2:21 PM -04 (6/19)
Horas de luz 11h 55m
Horas de luz
11h 08m
Creciente menguante, 27% of the Moon is Illuminated
Jun 19
Creciente menguante
Jun 23
Nueva
Jun 30
Cuarto creciente
Jul 9
Luna llena
Jul 16
Cuarto menguante

Hourly Weather History & Observations

Hora (-04) Temp. Vientos helados Punto de rocío Humedad Presión Visibilidad Wind Dir Velocidad del viento Velocidad de ráfagas Precip Eventos Condiciones
12:00 AM 35.6 ° F 28.6 ° F 33.8 ° F 93% 30.60 pul 6.2 mi NE 9.2 mph - N/A   Parcialmente nublado
12:44 AM 33.8 ° F 28.6 ° F 32.0 ° F 93% 30.60 pul 2.5 mi Este 5.8 mph - N/A Niebla Niebla
1:00 AM 35.6 ° F 29.9 ° F 33.8 ° F 93% 30.60 pul 2.5 mi Este 6.9 mph - N/A Niebla Niebla
2:00 AM 37 ° F - 35 ° F 90%  pul 2 mi Este 9.2 mph - - Niebla Poca niebla
2:00 AM 37.4 ° F 30.8 ° F 35.6 ° F 93% 30.60 pul 2.5 mi Este 9.2 mph - N/A Niebla Niebla
3:00 AM 37.4 ° F 30.3 ° F 33.8 ° F 87% 30.60 pul 2.5 mi Este 10.4 mph - N/A Niebla Niebla
4:00 AM 35.6 ° F 27.1 ° F 32.0 ° F 87% 30.60 pul 2.5 mi Este 12.7 mph - N/A Niebla Niebla
5:00 AM 34 ° F - 32 ° F 87%  pul 2 mi Este 12.7 mph - - Niebla Poca niebla
5:00 AM 33.8 ° F 24.8 ° F 32.0 ° F 93% 30.60 pul 2.5 mi Este 12.7 mph - N/A Niebla Niebla
6:00 AM 33.8 ° F 25.8 ° F 30.2 ° F 87% 30.60 pul 2.5 mi Este 10.4 mph - N/A Niebla Niebla
7:00 AM 30.2 ° F 23.4 ° F 26.6 ° F 86% 30.60 pul 6.2 mi Este 6.9 mph - N/A   Parcialmente nublado
8:00 AM 36 ° F - 33 ° F 83%  pul 9 mi 2.3 mph - -   Bruma
8:00 AM 35.6 ° F - 32.0 ° F 87% 30.63 pul 6.2 mi Variable 2.3 mph - N/A   Parcialmente nublado
9:00 AM 41.0 ° F - 23.0 ° F 49% 30.66 pul 6.2 mi Variable 2.3 mph - N/A   Parcialmente nublado
10:00 AM 44.6 ° F - 24.8 ° F 46% 30.66 pul 6.2 mi Variable 2.3 mph - N/A   Parcialmente nublado
11:00 AM 49 ° F - 22 ° F 22%  pul 7 mi 2.3 mph - -   Bruma
11:00 AM 48.2 ° F - 23.0 ° F 37% 30.66 pul 6.2 mi Variable 2.3 mph - N/A   Parcialmente nublado
12:00 PM 53.6 ° F - 23.0 ° F 30% 30.66 pul 6.2 mi Variable 2.3 mph - N/A   Parcialmente nublado
1:00 PM 55.4 ° F - 19.4 ° F 25% 30.63 pul 6.2 mi OSO 6.9 mph - N/A   Parcialmente nublado
2:00 PM 58 ° F - 21 ° F 13%  pul 12 mi Oeste 8.1 mph - -   Nubes dispersas
2:00 PM 59.0 ° F - 21.2 ° F 23% 30.60 pul 6.2 mi Oeste 8.1 mph - N/A   Parcialmente nublado
3:00 PM 59.0 ° F - 21.2 ° F 23% 30.57 pul 6.2 mi Oeste 8.1 mph - N/A   Parcialmente nublado
4:00 PM 60.8 ° F - 15.8 ° F 17% 30.57 pul 6.2 mi NNO 8.1 mph - N/A   Parcialmente nublado
5:00 PM 58 ° F - 17 ° F 10%  pul 12 mi ONO 9.2 mph - -   Nubes dispersas
5:00 PM 59.0 ° F - 17.6 ° F 20% 30.54 pul 6.2 mi ONO 9.2 mph - N/A   Parcialmente nublado
6:00 PM 51.8 ° F - 28.4 ° F 41% 30.57 pul 6.2 mi ONO 8.1 mph - N/A   Parcialmente nublado
7:00 PM 42.8 ° F 39.3 ° F 32.0 ° F 66% 30.57 pul 6.2 mi Este 5.8 mph - N/A   Parcialmente nublado
8:00 PM 40 ° F - 33 ° F 69%  pul 9 mi Este 6.9 mph - -   Nubes dispersas
8:00 PM 39.2 ° F 34.2 ° F 33.8 ° F 81% 30.60 pul 6.2 mi Este 6.9 mph - N/A   Parcialmente nublado
9:00 PM 37.4 ° F 30.8 ° F 33.8 ° F 87% 30.60 pul 6.2 mi ENE 9.2 mph - N/A   Desconocido
10:00 PM 35.6 ° F 29.9 ° F 33.8 ° F 93% 30.63 pul 2.5 mi Este 6.9 mph - N/A Niebla Niebla
11:00 PM 37 ° F - 36 ° F 93%  pul 2 mi Este 6.9 mph - - Niebla Poca niebla
11:00 PM 37.4 ° F 32.1 ° F 35.6 ° F 93% 30.66 pul 2.5 mi Este 6.9 mph - N/A Niebla Niebla